DW5212 Weather Reports


time (UTC)temp
C
wind
direction
speed
KPH
gust
KPH
rain 1hr
cm
rain 24hr
cm
rain mn
cm
humidity
%
barometer
mb
20260905091503 23 110 0.0 0.0 0.00 0.00 0.00 91 1013.2
20260905091004 23 110 0.0 0.0 0.00 0.00 0.00 91 1013.1
20260905090502 23 110 0.0 0.0 0.00 0.00 0.00 91 1013.1
20260905090004 23 110 0.0 0.0 0.00 0.00 0.00 91 1013.2
20260905085503 23 110 0.0 0.0 0.00 0.00 0.00 91 1013.1
20260905085004 23 111 0.0 0.0 0.00 0.00 0.00 91 1013.1
20260905084503 23 110 0.0 0.0 0.00 0.00 0.00 91 1013.2
20260905084003 23 110 0.0 0.0 0.00 0.00 0.00 91 1013.2
20260905083503 23 110 0.0 0.0 0.00 0.00 0.00 91 1013.2
20260905083004 23 110 0.0 0.0 0.00 0.00 0.00 91 1013.2
20260905082502 23 110 0.0 0.0 0.00 0.00 0.00 91 1013.2
20260905082003 23 110 0.0 0.0 0.00 0.00 0.00 91 1013.1
20260905081503 23 110 0.0 0.0 0.00 0.00 0.00 91 1013.0
20260905081003 23 110 0.0 0.0 0.00 0.00 0.00 91 1013.0
20260905080502 23 110 0.0 0.0 0.00 0.00 0.00 91 1013.2
20260905080004 23 110 0.0 0.0 0.00 0.00 0.00 91 1013.2
20260905075502 23 110 0.0 0.0 0.00 0.00 0.00 91 1013.1
20260905075003 23 111 0.0 0.0 0.00 0.00 0.00 91 1013.2
20260905074504 23 111 0.0 0.0 0.00 0.00 0.00 91 1013.2
20260905074003 23 110 0.0 0.0 0.00 0.00 0.00 91 1013.2
20260905073503 23 110 0.0 0.0 0.00 0.00 0.00 90 1013.1
20260905072004 23 110 0.0 0.0 0.00 0.00 0.00 90 1013.2
20260905071503 23 110 0.0 0.0 0.00 0.00 0.00 90 1013.2
20260905071003 23 110 0.0 0.0 0.00 0.00 0.00 90 1013.1
20260905070006 23 110 0.0 0.0 0.00 0.00 0.00 90 1013.1
20260905065502 23 110 0.0 0.0 0.00 0.00 0.00 90 1013.2
20260905065003 23 110 0.0 0.0 0.00 0.00 0.00 90 1013.3
20260905064503 23 110 0.0 0.0 0.00 0.00 0.00 89 1013.3
20260905064003 23 110 0.0 0.0 0.00 0.00 0.00 89 1013.5
20260905063503 23 110 0.0 0.0 0.00 0.00 0.00 89 1013.4
20260905062503 23 110 0.0 0.0 0.00 0.00 0.00 89 1013.4
20260905062004 23 110 0.0 0.0 0.00 0.00 0.00 88 1013.3
20260905061503 23 111 0.0 0.0 0.00 0.00 0.00 88 1013.4
20260905061004 24 110 0.0 0.0 0.00 0.00 0.00 87 1013.3
20260905060504 24 110 0.0 0.0 0.00 0.00 0.00 87 1013.4
20260905060009 24 110 0.0 0.0 0.00 0.00 0.00 87 1013.2
20260905055504 24 110 0.0 0.0 0.00 0.00 0.00 86 1013.3
20260905055005 24 110 0.0 0.0 0.00 0.00 0.00 86 1013.4
20260905054005 25 110 0.0 0.0 0.00 0.00 0.00 86 1013.4
20260905053505 25 110 0.0 0.0 0.00 0.00 0.00 86 1013.3
20260905053008 25 110 0.0 0.0 0.00 0.00 0.00 86 1013.4
20260905052504 25 110 0.0 0.0 0.00 0.00 0.00 86 1013.3
20260905052005 25 110 0.0 0.0 0.00 0.00 0.00 85 1013.3
20260905051504 25 110 0.0 0.0 0.00 0.00 0.00 85 1013.3
20260905050504 25 110 0.0 0.0 0.00 0.00 0.00 85 1013.3
20260905050009 25 110 0.0 0.0 0.00 0.00 0.00 85 1013.3
20260905045006 25 110 0.0 0.0 0.00 0.00 0.00 84 1013.4
20260905044504 25 110 0.0 0.0 0.00 0.00 0.00 83 1013.3
20260905044005 25 111 0.0 0.0 0.00 0.00 0.00 83 1013.3
20260905043504 25 111 0.0 0.0 0.00 0.00 0.00 83 1013.5
20260905043007 25 111 0.0 0.0 0.00 0.00 0.00 83 1013.4
20260905042504 25 111 0.0 0.0 0.00 0.00 0.00 83 1013.6
20260905041005 25 111 0.0 0.0 0.00 0.00 0.00 82 1013.7
20260905040007 26 111 0.0 0.0 0.00 0.00 0.00 81 1013.9
20260905035006 26 111 0.0 0.0 0.00 0.00 0.00 80 1013.9
20260905034005 26 111 0.0 0.0 0.00 0.00 0.00 79 1014.0
20260905033503 26 110 0.0 0.0 0.00 0.00 0.00 79 1013.9
20260905033007 26 111 0.0 0.0 0.00 0.00 0.00 79 1013.9
20260905032504 26 111 0.0 0.0 0.00 0.00 0.00 78 1013.9
20260905032005 26 111 0.0 0.0 0.00 0.00 0.00 78 1013.8
20260905031005 26 111 0.0 0.0 0.00 0.00 0.00 78 1014.0
20260905030504 26 111 0.0 0.0 0.00 0.00 0.00 77 1013.9
20260905030007 26 115 0.0 0.0 0.00 0.00 0.00 77 1014.0
20260905025004 26 115 0.0 0.0 0.00 0.00 0.00 77 1014.0
20260905024506 26 115 0.0 3.2 0.00 0.00 0.00 77 1014.0
20260905024005 26 115 1.6 9.7 0.00 0.00 0.00 76 1014.0
20260905023503 27 115 1.6 9.7 0.00 0.00 0.00 76 1013.9
20260905023006 27 112 1.6 6.4 0.00 0.00 0.00 76 1014.0
20260905022504 27 74 1.6 6.4 0.00 0.00 0.00 76 1014.0
20260905022006 27 78 1.6 4.8 0.00 0.00 0.00 76 1013.8
20260905021504 27 40 1.6 8.0 0.00 0.00 0.00 76 1014.0
20260905021005 27 84 1.6 8.0 0.00 0.00 0.00 76 1013.8
20260905020504 27 10 1.6 4.8 0.00 0.00 0.00 76 1013.9
20260905020007 27 74 1.6 6.4 0.00 0.00 0.00 76 1013.9
20260905015503 27 49 1.6 8.0 0.00 0.00 0.00 76 1014.0
20260905015004 27 90 1.6 4.8 0.00 0.00 0.00 76 1013.9
20260905014505 27 55 1.6 14.5 0.00 0.00 0.00 76 1014.0
20260905014004 27 72 1.6 11.3 0.00 0.00 0.00 76 1013.7
20260905013503 27 78 1.6 4.8 0.00 0.00 0.00 76 1013.8
20260905012504 27 79 0.0 8.0 0.00 0.00 0.00 76 1014.1
20260905011505 28 113 0.0 1.6 0.00 0.00 0.00 74 1013.7
20260905011005 28 113 0.0 1.6 0.00 0.00 0.00 74 1013.6
20260905010005 28 113 0.0 3.2 0.00 0.00 0.00 73 1013.6
20260905005004 28 113 0.0 1.6 0.00 0.00 0.00 72 1013.5
20260905004504 28 113 0.0 1.6 0.00 0.00 0.00 72 1013.6
20260905004003 28 113 1.6 3.2 0.00 0.00 0.00 71 1013.5
20260905003503 29 113 1.6 3.2 0.00 0.00 0.00 71 1013.5
20260905003004 29 73 0.0 3.2 0.00 0.00 0.00 71 1013.5
20260905002503 29 135 0.0 1.6 0.00 0.00 0.00 71 1013.5
20260905002004 29 135 1.6 6.4 0.00 0.00 0.00 70 1013.6
20260905001003 30 106 0.0 4.8 0.00 0.00 0.00 69 1013.3
20260905000008 30 150 0.0 3.2 0.00 0.00 0.00 69 1013.5
20260904235504 30 150 0.0 4.8 0.00 0.00 0.00 68 1013.5
20260904235004 30 90 0.0 3.2 0.00 0.00 0.00 68 1013.5
20260904234504 30 116 1.6 4.8 0.00 0.00 0.00 67 1013.6
20260904234005 30 115 1.6 8.0 0.00 0.00 0.00 67 1013.5
20260904233503 30 116 1.6 8.0 0.00 0.00 0.00 67 1013.3
20260904232504 31 115 3.2 8.0 0.00 0.00 0.00 65 1013.4
20260904232004 31 109 1.6 8.0 0.00 0.00 0.00 65 1013.3
20260904231503 31 112 0.0 8.0 0.00 0.00 0.00 65 1013.4
20260904231005 31 66 0.0 1.6 0.00 0.00 0.00 64 1013.2
20260904230009 31 66 1.6 6.4 0.00 0.00 0.00 63 1013.1
20260904225503 31 44 3.2 8.0 0.00 0.00 0.00 62 1013.0
20260904224004 32 54 3.2 6.4 0.00 0.00 0.00 61 1012.5
20260904223503 32 78 1.6 6.4 0.00 0.00 0.00 59 1012.6
20260904223005 32 46 0.0 4.8 0.00 0.00 0.00 57 1012.5
20260904222503 32 105 0.0 0.0 0.00 0.00 0.00 59 1012.4
20260904222004 32 106 0.0 0.0 0.00 0.00 0.00 60 1012.3
20260904221505 32 106 0.0 0.0 0.00 0.00 0.00 61 1012.4
20260904221006 32 106 0.0 0.0 0.00 0.00 0.00 60 1012.3
20260904220504 32 105 0.0 1.6 0.00 0.00 0.00 59 1012.3
20260904220007 33 106 0.0 4.8 0.00 0.00 0.00 60 1012.3
20260904215504 33 81 0.0 0.0 0.00 0.00 0.00 59 1012.3
20260904215004 33 90 0.0 0.0 0.00 0.00 0.00 59 1012.3
20260904214505 33 90 0.0 0.0 0.00 0.00 0.00 57 1012.3
20260904214005 33 90 0.0 1.6 0.00 0.00 0.00 56 1012.3
20260904213505 34 90 0.0 3.2 0.00 0.00 0.00 56 1012.3
20260904213005 34 93 0.0 1.6 0.00 0.00 0.00 54 1012.3
20260904212504 35 93 0.0 1.6 0.00 0.00 0.00 54 1012.3
20260904212006 35 38 0.0 3.2 0.00 0.00 0.00 55 1012.4
20260904211503 34 202 0.0 0.0 0.00 0.00 0.00 53 1012.5
20260904211004 34 39 0.0 0.0 0.00 0.00 0.00 54 1012.5
20260904210503 34 34 1.6 4.8 0.00 0.00 0.00 54 1012.5
20260904210007 34 162 1.6 11.3 0.00 0.00 0.00 53 1012.5
20260904205504 34 147 1.6 8.0 0.00 0.00 0.00 55 1012.7
20260904205006 34 288 1.6 8.0 0.00 0.00 0.00 54 1012.8
20260904204504 34 165 1.6 8.0 0.00 0.00 0.00 53 1012.7
20260904203503 33 124 1.6 3.2 0.00 0.00 0.00 57 1012.9
20260904203005 33 171 1.6 4.8 0.00 0.00 0.00 56 1012.9
20260904202504 33 279 1.6 4.8 0.00 0.00 0.00 58 1013.1
20260904202006 33 78 0.0 3.2 0.00 0.00 0.00 58 1013.1
20260904201506 33 63 0.0 0.0 0.00 0.00 0.00 58 1013.3
20260904201004 33 28 0.0 0.0 0.00 0.00 0.00 59 1013.4
20260904200008 33 287 1.6 4.8 0.00 0.00 0.00 60 1013.6
20260904195503 33 55 1.6 4.8 0.00 0.00 0.00 60 1013.7
20260904195005 33 134 1.6 3.2 0.00 0.00 0.00 60 1013.8
20260904194005 33 64 1.6 4.8 0.00 0.00 0.00 56 1013.8
20260904193503 33 108 1.6 4.8 0.00 0.00 0.00 56 1013.8
20260904193007 33 145 1.6 3.2 0.00 0.00 0.00 58 1013.8
20260904192504 33 33 1.6 12.9 0.00 0.00 0.00 56 1013.9
20260904192006 34 119 3.2 12.9 0.00 0.00 0.00 56 1013.9
20260904191505 34 114 1.6 4.8 0.00 0.00 0.00 56 1014.0
20260904191005 34 81 1.6 6.4 0.00 0.00 0.00 55 1014.0
20260904190005 33 304 0.0 3.2 0.00 0.00 0.00 57 1014.2
20260904185503 33 242 0.0 0.0 0.00 0.00 0.00 57 1014.1
20260904185004 33 240 0.0 0.0 0.00 0.00 0.00 58 1014.3
20260904184503 33 240 0.0 0.0 0.00 0.00 0.00 56 1014.2
20260904184004 34 232 0.0 0.0 0.00 0.00 0.00 56 1014.2
20260904183503 33 261 0.0 0.0 0.00 0.00 0.00 59 1014.3
20260904183004 33 53 0.0 1.6 0.00 0.00 0.00 58 1014.4
20260904182503 33 54 1.6 4.8 0.00 0.00 0.00 56 1014.4
20260904182003 34 54 1.6 4.8 0.00 0.00 0.00 55 1014.4
20260904181003 34 92 1.6 4.8 0.00 0.00 0.00 56 1014.5
20260904180006 34 204 1.6 6.4 0.00 0.00 0.00 56 1014.6
20260904175503 34 157 1.6 8.0 0.00 0.00 0.00 60 1014.8
20260904174503 33 151 0.0 0.0 0.00 0.00 0.00 61 1014.9
20260904174003 32 86 0.0 0.0 0.00 0.00 0.00 61 1015.0
20260904173502 33 85 0.0 0.0 0.00 0.00 0.00 61 1015.2
20260904173003 33 85 0.0 0.0 0.00 0.00 0.00 59 1015.3
20260904172502 33 85 0.0 0.0 0.00 0.00 0.00 58 1015.2
20260904172004 33 114 0.0 0.0 0.00 0.00 0.00 59 1015.6
20260904171505 33 60 1.6 3.2 0.00 0.00 0.00 60 1015.5
20260904171004 33 11 1.6 4.8 0.00 0.00 0.00 58 1015.6
20260904170503 33 50 1.6 4.8 0.00 0.00 0.00 57 1015.7
20260904170007 33 86 1.6 4.8 0.00 0.00 0.00 58 1015.8
20260904165005 33 144 1.6 6.4 0.00 0.00 0.00 59 1015.8
20260904164506 33 355 0.0 4.8 0.00 0.00 0.00 59 1015.8
20260904163504 33 348 1.6 4.8 0.00 0.00 0.00 61 1015.8
20260904163006 33 46 1.6 4.8 0.00 0.00 0.00 62 1015.8
20260904162504 33 130 1.6 4.8 0.00 0.00 0.00 63 1015.7
20260904162006 33 248 0.0 1.6 0.00 0.00 0.00 63 1015.8
20260904161505 32 274 0.0 3.2 0.00 0.00 0.00 64 1015.8
20260904160504 32 61 0.0 1.6 0.00 0.00 0.00 65 1016.0
20260904160006 32 65 1.6 3.2 0.00 0.00 0.00 67 1015.9
20260904155503 31 65 1.6 3.2 0.00 0.00 0.00 65 1016.0
20260904155004 31 44 0.0 3.2 0.00 0.00 0.00 66 1015.8
20260904154504 31 34 0.0 0.0 0.00 0.00 0.00 68 1015.8
20260904153503 31 53 0.0 4.8 0.00 0.00 0.00 67 1015.9
20260904153005 31 53 1.6 4.8 0.00 0.00 0.00 68 1016.0
20260904152504 31 53 1.6 4.8 0.00 0.00 0.00 68 1016.0
20260904152005 31 80 1.6 3.2 0.00 0.00 0.00 70 1015.9
20260904151005 30 118 0.0 0.0 0.00 0.00 0.00 72 1015.8
20260904150503 30 118 0.0 0.0 0.00 0.00 0.00 75 1015.7
20260904150006 30 118 0.0 0.0 0.00 0.00 0.00 77 1015.8
20260904145504 29 117 0.0 0.0 0.00 0.00 0.00 78 1015.9
20260904145005 29 117 0.0 1.6 0.00 0.00 0.00 79 1015.8
20260904144504 28 117 0.0 3.2 0.00 0.00 0.00 81 1015.8
20260904144003 28 117 0.0 3.2 0.00 0.00 0.00 83 1015.7
20260904143503 27 197 0.0 0.0 0.00 0.00 0.00 85 1015.9
20260904143004 27 197 0.0 0.0 0.00 0.00 0.00 87 1015.9
20260904142504 26 197 0.0 0.0 0.00 0.00 0.00 90 1015.9
20260904142005 26 197 0.0 0.0 0.00 0.00 0.00 91 1015.9
20260904141504 25 197 0.0 0.0 0.00 0.00 0.00 92 1015.9
20260904141004 25 196 0.0 0.0 0.00 0.00 0.00 93 1015.8
20260904140504 25 197 0.0 0.0 0.00 0.00 0.00 93 1015.8
20260904140006 25 197 0.0 0.0 0.00 0.00 0.00 94 1015.9
20260904135504 25 197 0.0 0.0 0.00 0.00 0.00 94 1015.8
20260904135006 24 196 0.0 0.0 0.00 0.00 0.00 95 1015.7
20260904134503 24 197 0.0 0.0 0.00 0.00 0.00 95 1015.7
20260904133503 23 197 0.0 0.0 0.00 0.00 0.00 95 1015.5
20260904133006 23 197 0.0 0.0 0.00 0.00 0.00 94 1015.6
20260904132503 23 196 0.0 0.0 0.00 0.00 0.00 94 1015.6
20260904132004 23 197 0.0 0.0 0.00 0.00 0.00 94 1015.5
20260904131504 23 197 0.0 0.0 0.00 0.00 0.00 94 1015.5
20260904131003 23 197 0.0 0.0 0.00 0.00 0.00 94 1015.5
20260904130503 23 197 0.0 0.0 0.00 0.00 0.00 94 1015.5
20260904130004 23 196 0.0 0.0 0.00 0.00 0.00 94 1015.3
20260904125004 22 197 0.0 0.0 0.00 0.00 0.00 94 1015.5
20260904124003 22 197 0.0 0.0 0.00 0.00 0.00 93 1015.3
20260904123504 22 197 0.0 0.0 0.00 0.00 0.00 93 1015.3
20260904122503 22 197 0.0 0.0 0.00 0.00 0.00 93 1015.2
20260904122004 22 196 0.0 0.0 0.00 0.00 0.00 93 1015.3
20260904121505 22 197 0.0 0.0 0.00 0.00 0.00 93 1015.3
20260904121004 22 197 0.0 0.0 0.00 0.00 0.00 93 1015.2
20260904120502 22 197 0.0 0.0 0.00 0.00 0.00 93 1015.1
20260904120006 22 196 0.0 0.0 0.00 0.00 0.00 93 1015.1
20260904115504 22 197 0.0 0.0 0.00 0.00 0.00 93 1015.0
20260904115004 22 197 0.0 0.0 0.00 0.00 0.00 93 1014.8
20260904114503 22 197 0.0 0.0 0.00 0.00 0.00 93 1014.8
20260904114003 22 197 0.0 0.0 0.00 0.00 0.00 92 1014.6
20260904113004 22 197 0.0 0.0 0.00 0.00 0.00 93 1014.6
20260904112503 22 197 0.0 0.0 0.00 0.00 0.00 93 1014.6
20260904112004 22 196 0.0 0.0 0.00 0.00 0.00 93 1014.6
20260904111503 23 197 0.0 0.0 0.00 0.00 0.00 93 1014.6
20260904111003 23 197 0.0 0.0 0.00 0.00 0.00 93 1014.6
20260904110502 23 197 0.0 0.0 0.00 0.00 0.00 93 1014.5
20260904110006 23 196 0.0 0.0 0.00 0.00 0.00 93 1014.5
20260904105503 22 197 0.0 0.0 0.00 0.00 0.00 93 1014.4
20260904105004 23 197 0.0 0.0 0.00 0.00 0.00 93 1014.5
20260904104503 23 197 0.0 0.0 0.00 0.00 0.00 93 1014.5
20260904104004 23 197 0.0 0.0 0.00 0.00 0.00 92 1014.4
20260904103503 23 197 0.0 0.0 0.00 0.00 0.00 92 1014.4
20260904103004 23 196 0.0 0.0 0.00 0.00 0.00 92 1014.4
20260904102503 23 197 0.0 0.0 0.00 0.00 0.00 92 1014.4
20260904102006 23 197 0.0 0.0 0.00 0.00 0.00 92 1014.4
20260904101503 23 197 0.0 0.0 0.00 0.00 0.00 92 1014.4
20260904101003 23 197 0.0 0.0 0.00 0.00 0.00 92 1014.4
20260904100005 23 197 0.0 0.0 0.00 0.00 0.00 92 1014.4
20260904095503 23 197 0.0 0.0 0.00 0.00 0.00 92 1014.3
20260904095004 23 197 0.0 0.0 0.00 0.00 0.00 92 1014.3
20260904094504 23 197 0.0 0.0 0.00 0.00 0.00 92 1014.3
20260904093504 23 197 0.0 0.0 0.00 0.00 0.00 92 1014.4
20260904093003 23 197 0.0 0.0 0.00 0.00 0.00 92 1014.4
20260904092004 23 197 0.0 0.0 0.00 0.00 0.00 92 1014.4